Weather in Wanaka

New Zealand     44°42′02″S   169°07′44″E
temp.,
°C
wind,
m/s
gust,
m/s
humid.,
%
clouds,
%
prec.,
mm/h
press.,
hPa
HPBL,
m
28 november, sun
sun2801:00+6ene118896 0.0 102454
04:00+5nne2284100 0.0 102361
07:00+5ene0187100 0.0 1023106
10:00+8nne1169100 0.0 1022515
13:00+14nne215294 0.0 1020791
16:00+17ne224446 0.0 1017880
19:00+18ne11460 0.0 1017569
22:00+12wsw11640 0.0 101810
29 november, mon
mon2901:00+9nw22831 0.0 101920
04:00+8nnw22865 0.0 101919
07:00+8nnw22826 0.0 102046
10:00+14nnw23475 0.0 1019483
13:00+19nne22335 0.0 1017908
16:00+22ne22310 0.0 10141088
19:00+22nne12380 0.0 1013656
22:00+13nnw12670 0.0 101623
30 november, tue
tue3001:00+10s017322 0.0 101710
04:00+10nw11793 0.0 101610
07:00+11nnw11790 0.0 101724
10:00+15ese11610 0.0 1017651
13:00+19e124941 0.0 10161386
16:00+22ese324393 0.0 10141747
19:00+18se556061 0.0 1016773
22:00+13sse347547 0.0 1019168
1 december, wed
wed101:00+10sse339166 0.0 1021106
04:00+11se228399 0.0 1021220
07:00+11se118494 0.0 1022236
10:00+12ene117854 0.0 1022531
13:00+17ese126021 0.0 10201117
16:00+21ese224923 0.1 10181538
19:00+19se2364100 1.6 1018471
22:00+14se1281100 1.0 102156
2 december, thu
thu201:00+11ene1187100 1.1 102212
04:00+11wnw1182100 0.0 102211
07:00+11nnw1274100 0.0 102347
10:00+15nnw2248100 0.0 1022465
13:00+14nnw2254100 0.0 1022214
16:00+14nw1165100 0.0 1021226
19:00+16ssw1163100 0.0 1020363
22:00+13s2267100 0.0 102115